W1NJC Weather Reports


time (UTC)temp
C
wind
direction
speed
KPH
gust
KPH
rain 1hr
cm
rain 24hr
cm
rain mn
cm
humidity
%
barometer
mb
20260505152724 21 169 4.8 16.1 0.00 0.00 0.00 59 1009.0
20260505151804 21 201 6.4 16.1 0.00 0.00 0.00 57 1008.9
20260505150903 20 171 3.2 14.5 0.00 0.00 0.00 63 1008.9
20260505124503 15 199 4.8 14.5 0.00 0.00 0.00 73 1009.4
20260505123603 15 205 6.4 19.3 0.00 0.00 0.00 73 1009.6
20260505122703 15 211 8.0 27.4 0.00 0.00 0.00 72 1009.5
20260505121803 15 218 4.8 22.5 0.00 0.00 0.00 74 1009.5
20260505120903 15 226 6.4 16.1 0.00 0.00 0.00 76 1009.2
20260505120003 14 207 4.8 12.9 0.00 0.00 0.00 78 1009.1
20260505115403 13 194 4.8 12.9 0.00 0.00 0.00 79 1009.4
20260505114503 13 188 6.4 17.7 0.00 0.00 0.00 80 1009.2
20260505113603 13 212 4.8 17.7 0.00 0.00 0.00 82 1009.3
20260505112703 12 201 3.2 16.1 0.00 0.00 0.00 83 1009.1
20260505111824 12 193 3.2 12.9 0.00 0.00 0.00 84 1009.2
20260505110903 12 177 3.2 11.3 0.00 0.00 0.00 86 1009.1
20260505101803 10 223 0.0 4.8 0.00 0.00 0.00 90 1008.9
20260505100903 10 0 0.0 0.0 0.00 0.00 0.00 90 1008.8
20260505100003 9 229 0.0 4.8 0.00 0.00 0.00 90 1008.8
20260505095403 9 0 0.0 0.0 0.00 0.00 0.00 90 1008.8
20260505094503 9 223 0.0 6.4 0.00 0.00 0.00 90 1008.8
20260505093603 9 223 0.0 6.4 0.00 0.00 0.00 91 1008.7
20260505092703 9 0 0.0 0.0 0.00 0.00 0.00 90 1008.8
20260505091803 8 254 0.0 8.0 0.00 0.00 0.00 91 1008.9
20260505090907 8 225 1.6 6.4 0.00 0.00 0.00 91 1009.0
20260505090024 8 222 0.0 6.4 0.00 0.00 0.00 92 1009.0
20260505085403 8 220 0.0 3.2 0.00 0.00 0.00 92 1009.0
20260505084503 8 0 0.0 0.0 0.00 0.00 0.00 91 1009.0
20260505083603 8 220 0.0 4.8 0.00 0.00 0.00 91 1009.1
20260505082703 8 0 0.0 0.0 0.00 0.00 0.00 91 1009.0
20260505081824 8 0 0.0 0.0 0.00 0.00 0.00 90 1009.1
20260505080903 8 0 0.0 6.4 0.00 0.00 0.00 90 1009.2
20260505080003 8 0 0.0 0.0 0.00 0.00 0.00 90 1009.2
20260505075403 7 0 0.0 0.0 0.00 0.00 0.00 90 1009.3
20260505074503 8 0 0.0 0.0 0.00 0.00 0.00 89 1009.3
20260505073603 8 0 0.0 0.0 0.00 0.00 0.00 88 1009.3
20260505072704 8 220 0.0 1.6 0.00 0.00 0.00 89 1009.2
20260505071803 8 220 0.0 6.4 0.00 0.00 0.00 88 1009.2
20260505070903 8 0 0.0 0.0 0.00 0.00 0.00 87 1009.4
20260505070003 8 0 0.0 0.0 0.00 0.00 0.00 87 1009.5
20260505065424 8 0 0.0 0.0 0.00 0.00 0.00 86 1009.5
20260505064503 8 0 0.0 0.0 0.00 0.00 0.00 86 1009.5
20260505063603 8 0 0.0 0.0 0.00 0.00 0.00 86 1009.5
20260505062703 8 0 0.0 1.6 0.00 0.00 0.00 85 1009.7
20260505061803 8 0 0.0 1.6 0.00 0.00 0.00 84 1009.7
20260505060903 9 220 0.0 4.8 0.00 0.00 0.00 83 1009.6
20260505060003 9 220 0.0 4.8 0.00 0.00 0.00 83 1009.7
20260505055424 9 220 0.0 4.8 0.00 0.00 0.00 82 1009.6
20260505054503 10 0 0.0 0.0 0.00 0.00 0.00 81 1009.7
20260505053603 10 0 0.0 0.0 0.00 0.00 0.00 79 1009.7
20260505052724 10 220 0.0 6.4 0.00 0.00 0.00 79 1009.7
20260505051803 10 219 0.0 6.4 0.00 0.00 0.00 79 1009.7
20260505050903 11 218 0.0 6.4 0.00 0.00 0.00 78 1009.8
20260505040903 11 200 1.6 12.9 0.00 0.00 0.00 75 1009.9
20260505040004 11 226 1.6 20.9 0.00 0.00 0.00 74 1009.9
20260505035403 11 224 1.6 20.9 0.00 0.00 0.00 74 1009.8
20260505034524 11 208 1.6 11.3 0.00 0.00 0.00 73 1009.7
20260505033603 12 175 1.6 9.7 0.00 0.00 0.00 72 1009.7
20260505032703 12 220 1.6 14.5 0.00 0.00 0.00 72 1009.6
20260505031803 12 206 1.6 14.5 0.00 0.00 0.00 71 1009.6
20260505030903 12 238 1.6 16.1 0.00 0.00 0.00 70 1009.6
20260505030003 12 232 1.6 17.7 0.00 0.00 0.00 69 1009.6
20260505025403 12 228 3.2 16.1 0.00 0.00 0.00 69 1009.6
20260505024503 12 183 3.2 16.1 0.00 0.00 0.00 68 1009.5
20260505023624 12 200 3.2 14.5 0.00 0.00 0.00 67 1009.6
20260505022703 12 211 4.8 14.5 0.00 0.00 0.00 66 1009.6
20260505021803 13 207 4.8 17.7 0.00 0.00 0.00 65 1009.7
20260505020903 13 210 4.8 17.7 0.00 0.00 0.00 64 1009.7
20260505020003 13 223 4.8 22.5 0.00 0.00 0.00 63 1009.7
20260505015424 13 196 4.8 22.5 0.00 0.00 0.00 63 1009.6
20260505014503 13 221 4.8 27.4 0.00 0.00 0.00 62 1009.4
20260505013603 13 226 6.4 17.7 0.00 0.00 0.00 62 1009.5
20260505012703 13 219 4.8 14.5 0.00 0.00 0.00 61 1009.5
20260505011824 13 212 4.8 19.3 0.00 0.00 0.00 60 1009.3
20260505010903 13 218 4.8 12.9 0.00 0.00 0.00 59 1009.2
20260505010024 14 204 3.2 11.3 0.00 0.00 0.00 58 1009.0
20260505005424 14 212 4.8 17.7 0.00 0.00 0.00 57 1008.8
20260505004503 15 213 4.8 16.1 0.00 0.00 0.00 56 1008.8
20260505003603 15 213 4.8 12.9 0.00 0.00 0.00 55 1008.6
20260505002704 15 216 3.2 19.3 0.00 0.00 0.00 53 1008.4
20260505001803 15 202 4.8 12.9 0.00 0.00 0.00 52 1008.2
20260505000903 15 226 6.4 17.7 0.00 0.00 0.00 51 1008.0
20260505000003 16 220 4.8 19.3 0.00 0.00 0.00 50 1007.9
20260504235403 16 222 3.2 19.3 0.00 0.00 0.00 50 1007.8
20260504234524 16 209 6.4 17.7 0.00 0.00 0.00 48 1007.7
20260504233603 16 203 6.4 27.4 0.00 0.00 0.00 48 1007.5
20260504232703 17 195 4.8 17.7 0.00 0.00 0.00 47 1007.5
20260504231803 17 198 8.0 29.0 0.00 0.00 0.00 47 1007.3
20260504230903 17 203 8.0 24.1 0.00 0.00 0.00 45 1007.2
20260504230003 17 209 8.0 27.4 0.00 0.00 0.00 44 1007.2
20260504225403 17 177 6.4 25.7 0.00 0.00 0.00 45 1007.1
20260504224503 18 198 9.7 32.2 0.00 0.00 0.00 43 1006.9
20260504223603 18 208 9.7 35.4 0.00 0.00 0.00 43 1006.8
20260504222724 18 205 9.7 24.1 0.00 0.00 0.00 41 1006.8
20260504221824 19 192 4.8 25.7 0.00 0.00 0.00 40 1006.7
20260504220924 20 171 9.7 24.1 0.00 0.00 0.00 39 1006.6
20260504220003 20 191 8.0 29.0 0.00 0.00 0.00 37 1006.5
20260504215403 20 190 8.0 20.9 0.00 0.00 0.00 37 1006.6
20260504214503 21 200 8.0 29.0 0.00 0.00 0.00 36 1006.5
20260504213603 22 166 9.7 24.1 0.00 0.00 0.00 33 1006.5
20260504212703 22 196 9.7 38.6 0.00 0.00 0.00 35 1006.5
20260504211803 22 234 6.4 38.6 0.00 0.00 0.00 31 1006.5
20260504210903 22 251 6.4 17.7 0.00 0.00 0.00 30 1006.3
20260504210003 23 248 4.8 16.1 0.00 0.00 0.00 29 1006.2
20260504205403 23 229 6.4 19.3 0.00 0.00 0.00 32 1006.3
20260504204503 23 219 9.7 27.4 0.00 0.00 0.00 30 1006.2
20260504203603 23 232 8.0 38.6 0.00 0.00 0.00 28 1006.3
20260504202724 22 181 9.7 33.8 0.00 0.00 0.00 29 1006.2
20260504201824 23 223 9.7 24.1 0.00 0.00 0.00 28 1006.5
20260504200903 22 236 6.4 22.5 0.00 0.00 0.00 27 1006.4
20260504200003 23 228 8.0 20.9 0.00 0.00 0.00 29 1006.4
20260504195424 22 235 8.0 29.0 0.00 0.00 0.00 30 1006.5
20260504194503 22 220 9.7 30.6 0.00 0.00 0.00 29 1006.5
20260504193603 22 247 11.3 30.6 0.00 0.00 0.00 30 1006.4
20260504192724 22 226 9.7 30.6 0.00 0.00 0.00 28 1006.5
20260504191803 22 229 11.3 32.2 0.00 0.00 0.00 29 1006.4
20260504190903 22 236 6.4 32.2 0.00 0.00 0.00 28 1006.5
20260504190003 22 235 9.7 27.4 0.00 0.00 0.00 28 1006.6
20260504185403 22 218 9.7 24.1 0.00 0.00 0.00 29 1006.7
20260504184503 21 221 11.3 30.6 0.00 0.00 0.00 27 1007.0
20260504183603 21 226 8.0 25.7 0.00 0.00 0.00 28 1006.9
20260504182703 21 223 12.9 40.2 0.00 0.00 0.00 30 1007.1
20260504181803 21 214 14.5 41.8 0.00 0.00 0.00 29 1007.0
20260504180924 21 231 9.7 27.4 0.00 0.00 0.00 29 1007.1
20260504180003 20 226 12.9 37.0 0.00 0.00 0.00 28 1007.3
20260504175424 21 219 11.3 41.8 0.00 0.00 0.00 28 1007.3
20260504174503 21 244 12.9 30.6 0.00 0.00 0.00 29 1007.4
20260504173603 20 209 9.7 25.7 0.00 0.00 0.00 29 1007.2
20260504172703 20 236 11.3 35.4 0.00 0.00 0.00 29 1007.4
20260504171803 20 243 12.9 43.5 0.00 0.00 0.00 29 1007.4
20260504170903 20 222 11.3 30.6 0.00 0.00 0.00 29 1007.5